Vorticity
nan nan nan nan nan nan nan nan nan nan nan nan nan nan nan nan nan nan nan nan nan nan nan nan nan nan nan nan nan nan nan nan nan nan nan nan nan nan nan nan nan nan nan nan nan nan nan
nan 5 5 5 6 6 6 5 5 8 7 5 6 6 6 6 6 7 8 8 8 9 9 11 16 19 12 1 7 2 -1 8 9 14 17 3 5 1 14 13 0 5 9 2 2 6 nan
nan 6 5 6 6 7 7 4 6 9 6 6 6 6 6 6 6 7 8 9 9 9 11 18 19 20 11 4 -1 5 9 11 12 12 13 11 8 3 2 13 7 -3 2 16 9 3 nan
nan 6 5 5 8 8 5 5 8 6 5 6 7 7 6 7 7 6 8 9 9 12 23 13 15 16 11 14 -2 2 15 9 7 12 8 11 11 13 8 4 12 21 8 4 11 10 nan
nan 5 6 7 9 7 6 9 7 5 6 7 7 7 7 7 6 9 9 10 15 20 16 22 24 9 8 0 -1 8 9 5 11 6 7 17 17 7 13 15 12 9 17 8 8 8 nan
nan 7 7 7 7 7 7 6 5 7 8 8 7 6 7 8 7 9 14 19 27 16 10 25 1 7 2 -4 3 14 9 8 15 16 18 15 10 11 5 11 10 3 2 6 10 14 nan
nan 7 8 9 7 6 6 5 7 8 6 7 7 7 7 7 7 15 26 23 14 0 12 7 -1 7 -0 8 8 9 12 16 11 10 9 14 15 12 3 -3 3 10 10 13 10 8 nan
nan 7 8 8 5 6 7 8 6 7 8 7 7 7 8 8 12 23 18 12 11 8 3 8 17 13 9 7 7 9 17 11 2 0 11 15 7 2 13 13 10 4 7 11 17 12 nan
nan 7 7 6 6 8 7 7 7 6 7 7 7 7 8 12 26 18 9 5 4 12 12 15 19 10 11 6 6 12 16 8 4 8 9 5 8 10 11 13 17 16 9 2 5 11 nan
nan 8 7 7 7 6 7 7 7 6 6 7 7 7 9 21 23 10 3 2 10 12 10 13 12 4 2 8 7 12 11 11 10 7 13 14 7 5 7 10 10 16 12 12 7 7 nan
nan 6 7 8 8 6 6 6 7 7 6 7 6 8 14 25 16 7 4 6 15 10 3 7 8 5 7 16 8 8 9 8 6 9 11 6 4 9 15 11 5 12 14 9 11 7 nan
nan 7 7 7 7 6 7 5 5 6 7 7 7 10 21 21 12 4 6 15 16 9 9 2 0 2 8 13 14 12 7 10 9 9 6 13 17 21 15 11 17 18 23 15 8 13 nan
nan 7 7 6 6 6 6 6 7 7 7 6 8 17 24 16 7 8 12 15 11 5 6 2 5 6 8 8 7 10 11 13 10 5 8 18 19 17 -1 17 22 20 20 14 13 12 nan
nan 7 7 9 7 8 8 8 7 7 7 8 13 24 21 9 6 12 13 11 5 6 4 4 8 13 11 5 9 6 14 15 11 10 7 1 4 6 10 10 8 15 14 15 16 9 nan
nan 7 8 10 9 8 7 7 8 7 6 10 25 24 11 6 9 12 10 8 3 3 3 10 13 13 3 8 15 10 17 12 7 4 10 6 2 9 10 6 20 23 17 6 6 15 nan
nan 9 9 7 8 7 7 8 7 7 7 20 26 13 9 7 12 10 7 5 9 3 5 15 13 4 6 12 8 9 15 4 9 11 9 5 11 8 8 18 16 11 18 18 8 10 nan
nan 7 7 7 7 7 7 7 9 9 10 23 21 12 7 11 13 9 10 5 -1 3 15 13 9 16 11 6 9 13 6 6 2 11 15 12 7 1 10 13 11 16 14 13 14 11 nan
nan 7 6 7 7 7 9 8 7 9 17 21 11 8 9 12 10 8 5 6 8 9 14 14 13 13 7 6 12 7 12 6 4 15 11 14 5 4 13 14 9 10 4 9 8 11 nan
nan 7 7 7 8 8 8 8 9 9 20 20 11 8 10 9 7 10 7 12 10 6 9 12 8 4 11 12 7 5 7 7 8 11 11 11 5 7 17 13 0 -6 -3 5 14 15 nan
nan 7 7 7 7 9 9 8 9 10 18 20 9 9 12 8 11 6 7 8 7 12 8 10 11 3 7 10 11 14 7 6 2 2 10 24 16 5 2 2 -3 -3 3 12 19 9 nan
nan 7 7 7 8 10 9 8 8 9 21 19 9 12 9 4 5 9 13 8 5 10 17 8 6 7 13 9 10 4 2 5 11 18 22 11 4 2 8 10 13 14 23 26 21 12 nan
nan 6 7 8 8 8 8 9 8 12 21 14 8 8 11 11 9 12 9 9 5 11 11 3 3 10 14 11 2 -2 7 13 14 9 9 12 6 8 15 13 9 13 15 25 22 22 nan
nan 7 7 7 8 8 8 8 8 15 17 10 7 10 10 7 10 9 7 3 4 10 5 8 12 13 9 6 7 14 16 18 12 7 15 12 7 13 9 6 20 12 4 8 4 10 nan
nan 8 7 7 9 8 8 8 8 10 15 18 9 10 8 11 10 1 4 10 10 11 12 10 15 12 6 7 18 21 17 16 15 14 15 11 12 11 7 12 17 2 1 9 4 -0 nan
nan 7 7 8 8 8 8 8 9 8 15 18 10 10 10 12 8 8 12 17 14 12 13 11 11 7 10 14 15 14 12 13 12 7 10 10 10 11 12 14 4 -6 -1 15 16 0 nan
nan 7 7 9 8 9 8 9 9 9 18 18 12 10 7 10 10 14 16 10 10 11 12 13 7 10 15 13 10 11 9 9 6 9 10 10 15 10 6 9 9 -1 5 27 28 -15 nan
nan 7 8 8 8 9 9 9 9 9 18 21 13 11 10 11 9 11 12 10 9 14 11 6 10 14 12 12 11 8 10 8 10 10 10 14 13 11 10 13 -1 -0 20 23 7 -4 nan
nan 8 8 9 9 9 8 8 10 10 18 21 13 11 12 9 9 9 8 9 10 9 9 8 9 12 9 12 12 10 11 9 11 9 10 14 11 9 13 10 -0 10 24 15 6 5 nan
nan nan nan nan nan nan nan nan nan nan nan nan nan nan nan nan nan nan nan nan nan nan nan nan nan nan nan nan nan nan nan nan nan nan nan nan nan nan nan nan nan nan nan nan nan nan nan
CAPE
15 13 11 7 6 13 38 8 12 19 10 10 19 15 11 9 10 15 17 16 19 12 7 8 11 14 8 0 0 0 0 0 0 0 0 0 0 0 0 0 1 5 0 0 0 0 0
11 10 5 8 8 8 13 13 12 12 13 11 19 14 16 16 13 12 19 19 14 6 5 7 5 6 2 0 0 0 0 0 0 0 4 0 0 0 0 0 0 0 0 0 0 0 0
10 14 13 9 12 13 12 27 13 19 24 14 19 21 17 13 20 18 10 4 1 0 0 0 0 1 2 0 0 0 0 0 0 0 0 2 9 17 9 10 0 0 0 0 0 0 0
3 18 15 8 11 13 25 8 17 36 22 17 17 29 17 19 17 11 5 2 0 0 0 0 0 7 0 0 0 0 0 0 0 0 0 0 0 0 69 45 23 6 5 0 0 0 0
10 10 8 13 27 29 19 19 23 29 17 18 20 20 17 20 10 10 1 0 0 0 0 0 0 7 0 6 0 0 0 0 0 0 0 0 1 0 4 14 33 54 13 0 0 0 0
6 5 10 13 27 19 19 21 20 15 15 19 20 19 16 13 4 3 0 0 0 0 0 0 0 0 0 0 0 0 0 0 0 0 0 12 15 0 3 12 16 1 18 5 0 0 4
4 4 7 11 32 27 21 13 11 15 22 26 22 21 11 5 1 0 0 0 0 0 0 0 0 0 0 0 0 0 0 0 0 0 0 0 74 0 0 0 4 4 9 24 2 0 25
8 20 25 28 15 15 8 8 18 15 15 20 17 13 14 6 0 0 0 0 2 3 0 0 0 0 0 5 0 0 0 0 0 0 0 0 0 0 8 28 38 3 11 0 0 0 0
11 8 12 15 9 10 14 16 15 15 11 9 9 9 9 3 0 0 0 0 0 0 0 0 5 12 0 0 0 0 61 46 7 0 0 6 0 0 0 0 14 18 7 5 1 0 7
9 11 10 10 8 13 11 11 8 10 10 8 9 9 2 8 0 0 0 0 0 0 0 0 3 5 0 0 0 0 0 38 7 4 0 17 0 3 2 1 0 2 0 4 41 16 0
7 6 8 5 21 15 15 11 12 13 7 8 5 3 0 0 0 0 0 0 0 0 0 0 0 0 0 0 0 0 0 0 0 0 0 0 0 0 31 0 0 0 0 39 2 7 1
3 3 6 10 12 4 15 25 23 13 8 2 0 0 0 0 0 0 0 0 0 0 0 0 0 0 0 0 0 0 4 1 4 0 0 0 0 0 0 0 10 3 0 2 10 7 22
1 4 6 6 14 18 25 19 26 21 7 0 0 0 0 0 0 0 0 0 0 0 0 0 0 0 0 0 0 0 0 1 17 0 0 0 0 0 0 0 0 104 0 10 25 1 2
1 3 4 11 23 24 21 22 27 19 8 0 0 0 0 0 0 0 0 0 0 0 0 0 0 0 0 0 0 0 0 0 0 0 0 0 0 1 0 13 21 1 2 0 8 0 0
2 7 17 22 12 13 17 23 26 24 9 0 0 0 0 0 0 0 0 0 20 5 12 3 1 0 0 0 0 0 0 0 0 0 1 0 0 0 0 0 0 0 1 0 7 1 1
7 7 8 9 7 7 14 12 28 30 10 0 0 0 0 0 0 0 0 12 0 0 1 3 0 1 2 0 0 0 0 0 0 0 0 0 0 0 0 0 0 10 3 18 4 0 44
1 3 3 5 5 7 16 29 31 31 16 0 0 0 0 0 0 0 0 0 0 0 0 0 1 1 0 0 0 0 0 0 0 0 0 0 0 0 0 0 1 0 0 0 13 26 26
0 2 4 6 11 22 24 21 26 32 32 0 0 0 0 0 0 0 0 0 3 0 0 1 3 0 0 0 0 0 0 0 0 0 0 0 0 0 0 2 0 0 13 1 1 0 21
0 2 9 12 11 12 23 34 32 35 33 0 0 0 0 0 0 0 0 0 0 0 0 2 12 24 0 0 1 0 0 0 0 0 0 3 0 0 0 0 0 0 0 0 0 4 0
0 7 5 11 19 25 18 27 29 22 29 0 0 0 0 0 0 0 0 0 0 0 0 0 2 0 0 0 0 0 0 0 0 0 32 3 0 0 1 1 2 1 0 0 5 0 0
1 3 8 13 12 13 29 16 14 19 13 0 0 1 0 0 0 0 0 0 0 0 0 0 0 0 0 0 0 0 0 0 0 0 0 0 0 0 0 0 0 0 2 1 2 0 0
0 2 9 8 16 26 10 8 11 20 5 0 3 7 0 0 0 0 0 0 0 0 0 0 0 0 0 0 0 0 0 0 0 0 0 0 0 0 0 0 0 2 4 2 0 3 4
0 6 13 6 10 11 9 11 13 24 8 6 0 0 0 0 0 0 0 0 0 0 0 0 0 0 0 0 0 0 0 0 0 0 0 0 0 0 0 0 0 0 1 2 0 3 2
1 8 5 12 13 12 11 12 14 27 23 1 0 9 9 0 0 0 0 0 0 0 0 0 0 0 0 0 0 0 0 0 0 0 0 0 0 0 0 0 0 10 2 5 3 2 3
4 4 8 14 12 11 10 13 21 24 18 0 0 13 4 0 0 0 2 7 2 0 0 0 0 0 0 0 0 0 0 0 0 0 0 0 0 3 0 0 0 0 0 0 5 1 0
2 6 8 13 9 11 10 15 16 15 32 2 0 0 11 13 0 0 2 0 0 0 0 0 0 0 0 0 0 0 0 0 0 0 0 0 0 0 0 0 1 0 0 0 0 0 0
1 6 9 6 10 10 10 7 16 25 27 4 0 0 14 8 0 0 0 4 1 0 0 0 0 0 0 0 0 0 0 0 0 0 0 0 0 0 0 0 0 0 0 0 0 0 0
4 8 5 8 10 9 8 12 19 25 29 4 0 3 15 5 0 0 0 0 0 0 0 0 0 0 0 0 0 0 0 0 0 0 0 0 0 2 0 0 0 0 0 0 1 1 1
8 4 8 9 9 9 8 14 18 19 21 5 0 0 0 18 0 0 0 0 0 0 2 0 0 0 0 0 0 0 0 0 0 0 0 0 0 0 0 0 0 0 0 0 0 0 0